Regional Weather Roundup
Issued by NWS

Home | Current Version | Previous Version | Text Only | Print | Product List | Glossary Off
Versions: 1 2 3 4 5 6 7 8 9 10 11 12 13 14 15 16 17 18 19 20 21 22 23 24 25 26 27 28 29 30 31 32 33 34 35 36 37 38 39 40 41 42 43 44 45 46 47 48 49 50

000
ASUS43 KDTX 251001
RWRMI
MICHIGAN HOURLY REGIONAL WEATHER ROUNDUP
NATIONAL WEATHER SERVICE DETROIT/PONTIAC MI
600 AM EDT SAT OCT 25 2014

NOTE: "FAIR" INDICATES FEW OR NO CLOUDS BELOW 12,000 FEET WITH NO
SIGNIFICANT WEATHER AND/OR OBSTRUCTION TO VISIBILITY.

MIZ047>049-052>055-059>063-066>070-074>076-081>083-251100-
SOUTHEAST LOWER MICHIGAN

CITY           SKY/WX    TMP DP  RH WIND       PRES   REMARKS
ADRIAN         CLOUDY    48  47  96 SW5       29.89F FOG
ALMA           CLOUDY    49  48  96 SW6       29.83S FOG
ANN ARBOR      CLOUDY    43  41  93 CALM      29.86F FOG
BAD AXE        MOCLDY    47  47 100 SW7       29.81F FOG
CARO           MOCLDY    46  46  98 S6        29.82F FOG
DETROIT CITY   CLOUDY    50  46  86 SW5       29.87F FOG
DETROIT        MOCLDY    46  45  96 S6        29.87F FOG
FLINT          CLOUDY    54  47  77 SW6       29.85F
GROSSE ILE     PTCLDY    48  46  93 S5        29.86F FOG
HILLSDALE      MOCLDY    51  51  99 SW3       29.88S FOG
HOWELL         MOCLDY    49  47  93 S6        29.84F

CITY           SKY/WX    TMP DP  RH WIND       PRES   REMARKS
JACKSON        PTCLDY    50  48  93 SW7       29.87S
LAMBERTVILLE   MOCLDY    52  48  87 SW3       29.89F FOG
LANSING        CLOUDY    52  48  86 SW7       29.85S
LAPEER         CLOUDY    42  41  97 CALM      29.85R FOG
MASON          CLOUDY    50  47  90 CALM      29.85S
MONROE         PTCLDY    48  48 100 SW5       29.87F FOG
MT. CLEMENS    MOCLDY    49  48  99 SW5       29.84S
PONTIAC        MOCLDY    47  45  93 SW3       29.85S FOG
PORT HOPE        N/A     50  47  89 SW8       29.76F
PORT HURON     MOCLDY    45  45 100 CALM      29.85F FOG
TRI CITIES     CLOUDY    50  47  89 SW6       29.82F FOG
TROY           MOCLDY    48  45  89 SW6       29.87F FOG
SAGINAW HB     CLOUDY    50  50 100 SW8       29.81F
$$
MIZ043>046-050>051-056>058-064>065-071>073-077>080-251100-
SOUTHWEST LOWER MICHIGAN

CITY           SKY/WX    TMP DP  RH WIND       PRES   REMARKS
BATTLE CREEK   MOCLDY    53  48  83 SW9       29.87S
BENTON HARBOR  CLOUDY    57  53  86 W15       29.89R
BIG RAPIDS     CLOUDY    53  53 100 W6        29.80F
COLDWATER      MOCLDY    53  51  92 SW7       29.88S
FREMONT        FAIR      51  49  93 W5        29.81F
HOLLAND        PTCLDY    58  52  80 W14       29.87R
GRAND RAPIDS   CLOUDY    56  50  80 SW10      29.85S
IONIA          CLOUDY    53  50  89 W8        29.84R
KALAMAZOO      CLOUDY    53  48  83 SW6       29.89R
LUDINGTON      CLOUDY    55  52  92 W7        29.81S FOG
MARSHALL       CLOUDY    53  49  86 SW7       29.86S
MOUNT PLEASANT CLOUDY    50  48  94 SW5       29.80F
MUSKEGON       PTCLDY    56  50  80 W9        29.83F
SOUTH HAVEN    CLOUDY    59  54  84 W12G17    29.89R
$$
MIZ016>042-251100-
NORTHERN LOWER MICHIGAN

CITY           SKY/WX    TMP DP  RH WIND       PRES   REMARKS
ALPENA         CLOUDY    51  47  86 SW9       29.71F
BEAVER ISLAND  CLOUDY    53  52  96 SW10G18   29.70S FOG
BELLAIRE       CLOUDY    54  49  83 S5        29.74F
CADILLAC       CLOUDY    51  49  93 SW8       29.78S
CHARLEVOIX     CLOUDY    55  53  92 W15G23    29.74F FOG
FRANKFORT      PTCLDY    54  50  87 W6        29.78F FOG
GAYLORD        CLOUDY    51  48  89 SW14G22   29.73F
GRAYLING       CLOUDY    50  48  92 W5        29.77S
HARBOR SPRINGS CLOUDY    55  52  88 W9        29.71F
HOUGHTON LAKE  CLOUDY    49  47  93 W3        29.78F
MANISTEE       PTCLDY    54  50  87 W8        29.81R
OSCODA         CLOUDY    47  47  99 SW10      29.75S FOG
PELLSTON       CLOUDY    55  51  86 W17G26    29.70F
ROGERS CITY    MOCLDY    52  48  87 SW9       29.69F
TRAVERSE CITY  CLOUDY    54  49  83 SW8       29.75F
$$
MIZ007>008-015-251100-
EASTERN UPPER MICHIGAN

CITY           SKY/WX    TMP DP  RH WIND       PRES   REMARKS
KINROSS        CLOUDY    54  52  94 W10G17    29.64F
MACKINAC ISLAN CLOUDY    53  52  98 SW18G29   29.66F FOG
NEWBERRY       MOCLDY    50  48  94 SW12G21   29.65F
S. S. MARIE    CLOUDY    52  49  89 SW10G20   29.61F
MUNISING         N/A     54  46  74 SW7       29.66S
$$
MIZ004>006-011>014-085-251100-
CENTRAL UPPER MICHIGAN

CITY           SKY/WX    TMP DP  RH WIND       PRES   REMARKS
MANISTIQUE     CLEAR     50  49  97 W8        29.68S
ESCANABA       CLEAR     48  46  93 W9        29.71R
MENOMINEE      CLEAR     54  50  87 W8        29.75R
SAWYER-GWINN   CLEAR     50  46  84 W6        29.69S
$$
MIZ001>003-009>011-084-251100-
WESTERN UPPER MICHIGAN

CITY           SKY/WX    TMP DP  RH WIND       PRES   REMARKS
IRON MOUNTAIN  CLEAR     53  47  79 W9        29.73R
HOUGHTON       CLEAR     53  36  52 W17G24    29.66F
COPPER HARBOR    N/A     57  35  43 NW10G21   29.62F
IRONWOOD       CLEAR     48  39  71 W14       29.77S
$$

ABBREVIATIONS USED IN REMARKS
   TC - TEMPERATURE IN CELSIUS
  WCI - WIND CHILL INDEX
   HX - HEAT INDEX
  VSB - VISIBILITY




USA.gov is the U.S. government's official web portal to all federal, state and local government web resources and services.